AFL1079 UUEE-UWGG

Flight info

Callsign AFL1079
Flight time 1h 1m
Altitude 31000
Route KOGOM3H KOGOM L94 USTOK USTOK2P
Aircraft A320/M-SDE3FGHIRWY/LB1

Departure

Time 2026-05-08 17:28
Airport Sheremetyevo International Airport (UUEE)

Arrival

Time 2026-05-08 18:29
Airport Nizhny Novgorod / Strigino International Airport (UWGG)
Time Latitude Longitude Altitude Speed Heading
2026-05-08 16:44 55.98037 37.43183 630 ft 0 kts 165°
2026-05-08 17:09 55.98045 37.43179 638 ft 2 kts 165°
2026-05-08 17:09 55.98062 37.43172 631 ft 2 kts 165°
2026-05-08 17:09 55.98078 37.43164 633 ft 2 kts 152°
2026-05-08 17:09 55.98094 37.43149 630 ft 2 kts 152°
2026-05-08 17:10 55.98108 37.43135 630 ft 3 kts 134°
2026-05-08 17:10 55.98119 37.43111 636 ft 2 kts 87°
2026-05-08 17:10 55.98116 37.43081 630 ft 2 kts 77°
2026-05-08 17:10 55.98112 37.43051 630 ft 3 kts 74°
2026-05-08 17:11 55.98108 37.43021 630 ft 2 kts 74°
2026-05-08 17:11 55.98106 37.43008 632 ft 0 kts 75°
2026-05-08 17:20 55.98107 37.43015 633 ft 0 kts 75°
2026-05-08 17:21 55.98116 37.43075 630 ft 12 kts 78°
2026-05-08 17:21 55.98088 37.43194 634 ft 9 kts 129°
2026-05-08 17:21 55.98049 37.43273 630 ft 8 kts 131°
2026-05-08 17:21 55.98011 37.43318 630 ft 6 kts 166°
2026-05-08 17:22 55.97961 37.43229 630 ft 15 kts 256°
2026-05-08 17:22 55.97934 37.43044 636 ft 16 kts 255°
2026-05-08 17:22 55.97922 37.42967 630 ft 0 kts 255°
2026-05-08 17:23 55.97916 37.42931 632 ft 11 kts 255°
2026-05-08 17:23 55.97888 37.42777 633 ft 13 kts 234°
2026-05-08 17:23 55.97815 37.42750 632 ft 10 kts 174°
2026-05-08 17:23 55.97763 37.42775 630 ft 6 kts 164°
2026-05-08 17:24 55.97731 37.42792 637 ft 4 kts 164°
2026-05-08 17:24 55.97716 37.42799 630 ft 0 kts 164°
2026-05-08 17:25 55.97690 37.42813 629 ft 12 kts 164°
2026-05-08 17:25 55.97604 37.42803 636 ft 12 kts 217°
2026-05-08 17:25 55.97588 37.42744 638 ft 0 kts 252°
2026-05-08 17:27 55.97560 37.42560 639 ft 50 kts 255°
2026-05-08 17:28 55.97398 37.41460 637 ft 129 kts 255°
2026-05-08 17:28 55.97127 37.39575 777 ft 174 kts 256°
2026-05-08 17:28 55.96789 37.37354 1266 ft 199 kts 257°
2026-05-08 17:28 55.96379 37.34733 1557 ft 242 kts 256°
2026-05-08 17:29 55.95855 37.31656 1886 ft 280 kts 255°
2026-05-08 17:29 55.95219 37.28159 2329 ft 313 kts 254°
2026-05-08 17:29 55.94595 37.24459 3620 ft 302 kts 257°
2026-05-08 17:29 55.94068 37.20962 5372 ft 284 kts 257°
2026-05-08 17:30 55.93685 37.17585 6941 ft 273 kts 269°
2026-05-08 17:30 55.93923 37.14255 8218 ft 272 kts 290°
2026-05-08 17:30 55.94880 37.11354 9386 ft 275 kts 313°
2026-05-08 17:30 55.96434 37.09342 10423 ft 285 kts 333°
2026-05-08 17:31 55.98440 37.08562 11050 ft 307 kts
2026-05-08 17:31 56.00543 37.09539 11920 ft 323 kts 26°
2026-05-08 17:31 56.02238 37.12263 12799 ft 339 kts 55°
2026-05-08 17:31 56.03084 37.16240 13649 ft 351 kts 84°
2026-05-08 17:32 56.02862 37.20588 14440 ft 357 kts 108°
2026-05-08 17:32 56.01992 37.24759 15256 ft 360 kts 117°
2026-05-08 17:32 56.00854 37.28777 16049 ft 365 kts 121°
2026-05-08 17:32 55.99602 37.32764 16831 ft 370 kts 122°
2026-05-08 17:33 55.98343 37.36769 17604 ft 376 kts 121°
2026-05-08 17:33 55.97095 37.40917 18255 ft 381 kts 120°
2026-05-08 17:33 55.95869 37.45209 18519 ft 394 kts 118°
2026-05-08 17:33 55.94672 37.49642 18929 ft 400 kts 116°
2026-05-08 17:34 55.93800 37.54376 19380 ft 406 kts 103°
2026-05-08 17:34 55.93300 37.59354 19858 ft 409 kts 101°
2026-05-08 17:34 55.92784 37.64354 20346 ft 412 kts 102°
2026-05-08 17:34 55.92232 37.69392 20820 ft 415 kts 103°
2026-05-08 17:35 55.91444 37.74341 21311 ft 415 kts 114°
2026-05-08 17:35 55.90182 37.78930 21896 ft 411 kts 122°
2026-05-08 17:35 55.88772 37.83364 22552 ft 409 kts 122°
2026-05-08 17:35 55.87383 37.87776 23220 ft 407 kts 122°
2026-05-08 17:36 55.86013 37.92164 23876 ft 404 kts 122°
2026-05-08 17:36 55.84658 37.96520 24457 ft 400 kts 122°
2026-05-08 17:36 55.83315 38.00829 25059 ft 396 kts 122°
2026-05-08 17:36 55.81983 38.05096 25652 ft 392 kts 122°
2026-05-08 17:37 55.80836 38.09469 26268 ft 389 kts 112°
2026-05-08 17:37 55.80093 38.14057 26896 ft 385 kts 102°
2026-05-08 17:37 55.79769 38.18741 27531 ft 379 kts 92°
2026-05-08 17:37 55.79815 38.23378 28062 ft 376 kts 88°
2026-05-08 17:38 55.79952 38.28031 28380 ft 378 kts 82°
2026-05-08 17:38 55.80497 38.32654 28428 ft 389 kts 75°
2026-05-08 17:38 55.81171 38.37369 28556 ft 397 kts 74°
2026-05-08 17:38 55.81873 38.42154 28694 ft 404 kts 74°
2026-05-08 17:39 55.82596 38.47045 28835 ft 413 kts 74°
2026-05-08 17:39 55.83332 38.52030 28909 ft 423 kts 74°
2026-05-08 17:39 55.84081 38.57170 28903 ft 435 kts 75°
2026-05-08 17:39 55.84844 38.62453 28940 ft 446 kts 75°
2026-05-08 17:40 55.85614 38.67835 29080 ft 453 kts 75°
2026-05-08 17:40 55.86390 38.73312 29218 ft 459 kts 75°
2026-05-08 17:40 55.87172 38.78855 29333 ft 466 kts 75°
2026-05-08 17:40 55.87968 38.84511 29334 ft 475 kts 75°
2026-05-08 17:41 55.89589 38.96037 29377 ft 490 kts 75°
2026-05-08 17:41 55.90409 39.01893 30018 ft 483 kts 75°
2026-05-08 17:41 55.91211 39.07656 30643 ft 475 kts 75°
2026-05-08 17:42 55.92002 39.13354 31021 ft 474 kts 75°
2026-05-08 17:42 55.92793 39.19087 31153 ft 479 kts 75°
2026-05-08 17:42 55.94391 39.30787 31175 ft 492 kts 75°
2026-05-08 17:43 55.96027 39.42799 31175 ft 504 kts 75°
2026-05-08 17:43 55.97689 39.55045 31171 ft 509 kts 76°
2026-05-08 17:44 55.99559 39.67247 31157 ft 511 kts 66°
2026-05-08 17:44 56.02764 39.78609 31173 ft 515 kts 59°
2026-05-08 17:45 56.06115 39.89946 31172 ft 516 kts 60°
2026-05-08 17:45 56.09450 40.01331 31165 ft 516 kts 60°
2026-05-08 17:46 56.12763 40.12721 31176 ft 516 kts 60°
2026-05-08 17:46 56.16084 40.24192 31157 ft 520 kts 60°
2026-05-08 17:47 56.19427 40.35744 31133 ft 522 kts 60°
2026-05-08 17:47 56.22208 40.45385 31127 ft 523 kts 60°
2026-05-08 17:48 56.25413 40.59529 31138 ft 527 kts 77°
2026-05-08 17:48 56.25856 40.72673 31158 ft 529 kts 95°
2026-05-08 17:49 56.25318 40.85790 31144 ft 530 kts 95°
2026-05-08 17:49 56.24774 40.99002 31145 ft 523 kts 95°
2026-05-08 17:50 56.24505 41.05409 30754 ft 511 kts 95°
2026-05-08 17:50 56.24235 41.11724 30277 ft 502 kts 95°
2026-05-08 17:50 56.23962 41.18021 28919 ft 510 kts 95°
2026-05-08 17:50 56.23686 41.24340 28374 ft 502 kts 95°
2026-05-08 17:51 56.23412 41.30543 27774 ft 495 kts 95°
2026-05-08 17:51 56.23136 41.36668 27170 ft 489 kts 95°
2026-05-08 17:51 56.22858 41.42731 26574 ft 484 kts 95°
2026-05-08 17:51 56.22580 41.48713 25995 ft 484 kts 96°
2026-05-08 17:52 56.22385 41.52852 25606 ft 500 kts 96°
2026-05-08 17:52 56.22084 41.59159 25000 ft 508 kts 96°
2026-05-08 17:52 56.21479 41.71784 24175 ft 500 kts 95°
2026-05-08 17:53 56.21180 41.77961 23572 ft 493 kts 96°
2026-05-08 17:53 56.20876 41.84158 22957 ft 508 kts 96°
2026-05-08 17:53 56.20557 41.90542 22534 ft 509 kts 96°
2026-05-08 17:53 56.20244 41.96758 22402 ft 498 kts 96°
2026-05-08 17:54 56.19926 42.03012 22149 ft 503 kts 96°
2026-05-08 17:54 56.19610 42.09196 21623 ft 492 kts 96°
2026-05-08 17:54 56.19299 42.15257 21114 ft 489 kts 96°
2026-05-08 17:54 56.18978 42.21417 20501 ft 495 kts 96°
2026-05-08 17:55 56.18651 42.27525 19863 ft 488 kts 96°
2026-05-08 17:55 56.18321 42.33553 19237 ft 482 kts 96°
2026-05-08 17:55 56.17992 42.39508 18621 ft 477 kts 96°
2026-05-08 17:55 56.17663 42.45405 17956 ft 473 kts 96°
2026-05-08 17:56 56.17335 42.51248 17268 ft 469 kts 96°
2026-05-08 17:56 56.17008 42.57046 16573 ft 465 kts 96°
2026-05-08 17:56 56.16679 42.62802 15922 ft 462 kts 96°
2026-05-08 17:56 56.16349 42.68529 15288 ft 470 kts 96°
2026-05-08 17:57 56.16012 42.74364 14648 ft 467 kts 96°
2026-05-08 17:57 56.15683 42.80028 13975 ft 447 kts 96°
2026-05-08 17:57 56.15363 42.85472 13183 ft 431 kts 96°
2026-05-08 17:57 56.15051 42.90752 12401 ft 431 kts 96°
2026-05-08 17:58 56.14727 42.96186 11842 ft 438 kts 96°
2026-05-08 17:58 56.14402 43.01574 11314 ft 430 kts 96°
2026-05-08 17:58 56.14078 43.06862 10774 ft 424 kts 96°
2026-05-08 17:58 56.13758 43.12071 10273 ft 417 kts 96°
2026-05-08 17:59 56.13403 43.17116 10138 ft 399 kts 102°
2026-05-08 17:59 56.12476 43.21657 9995 ft 380 kts 121°
2026-05-08 17:59 56.10902 43.25362 9470 ft 371 kts 140°
2026-05-08 17:59 56.08974 43.28364 9008 ft 365 kts 142°
2026-05-08 18:00 56.07055 43.31295 8457 ft 364 kts 142°
2026-05-08 18:00 56.02913 43.37578 7065 ft 397 kts 141°
2026-05-08 18:00 56.00828 43.40763 6365 ft 392 kts 140°
2026-05-08 18:01 55.98995 43.44310 5629 ft 387 kts 121°
2026-05-08 18:01 55.97947 43.48628 4978 ft 375 kts 101°
2026-05-08 18:01 55.97362 43.53105 4197 ft 369 kts 99°
2026-05-08 18:01 55.96808 43.57551 3426 ft 365 kts 99°
2026-05-08 18:02 55.96282 43.61955 2743 ft 358 kts 96°
2026-05-08 18:02 55.96377 43.66182 2531 ft 329 kts 69°
2026-05-08 18:02 55.97492 43.69475 2498 ft 297 kts 39°
2026-05-08 18:02 55.99190 43.71148 2498 ft 268 kts 14°
2026-05-08 18:03 56.00930 43.71772 2499 ft 247 kts
2026-05-08 18:03 56.02572 43.72077 2502 ft 228 kts
2026-05-08 18:03 56.04087 43.72361 2498 ft 208 kts
2026-05-08 18:03 56.05424 43.72680 2504 ft 181 kts
2026-05-08 18:04 56.06576 43.72879 2528 ft 153 kts
2026-05-08 18:04 56.07550 43.73092 2478 ft 129 kts
2026-05-08 18:04 56.08383 43.73357 2285 ft 120 kts
2026-05-08 18:04 56.09256 43.73662 1912 ft 149 kts
2026-05-08 18:05 56.10353 43.74040 1717 ft 162 kts
2026-05-08 18:05 56.11394 43.74411 1524 ft 142 kts
2026-05-08 18:05 56.12323 43.74724 1292 ft 132 kts
2026-05-08 18:05 56.13218 43.75035 925 ft 133 kts
2026-05-08 18:06 56.14259 43.75389 1107 ft 165 kts
2026-05-08 18:06 56.15452 43.75782 1650 ft 189 kts
2026-05-08 18:06 56.16905 43.76263 1926 ft 235 kts
2026-05-08 18:06 56.18678 43.76867 1985 ft 285 kts
2026-05-08 18:07 56.20703 43.77697 1909 ft 301 kts 11°
2026-05-08 18:07 56.22689 43.78486 1785 ft 283 kts
2026-05-08 18:07 56.24558 43.79167 1647 ft 266 kts
2026-05-08 18:07 56.26287 43.79794 1802 ft 239 kts
2026-05-08 18:08 56.27880 43.80375 1959 ft 232 kts
2026-05-08 18:08 56.29390 43.81424 1992 ft 243 kts 32°
2026-05-08 18:08 56.30479 43.83830 1998 ft 258 kts 62°
2026-05-08 18:08 56.30979 43.86931 1999 ft 263 kts 73°
2026-05-08 18:09 56.31118 43.90235 1995 ft 272 kts 95°
2026-05-08 18:09 56.30394 43.93410 1996 ft 281 kts 124°
2026-05-08 18:09 56.28905 43.95707 1995 ft 290 kts 153°
2026-05-08 18:09 56.26927 43.96630 2001 ft 297 kts 178°
2026-05-08 18:10 56.24852 43.96621 2008 ft 299 kts 183°
2026-05-08 18:10 56.22777 43.96488 2007 ft 299 kts 184°
2026-05-08 18:10 56.20702 43.96339 2142 ft 300 kts 184°
2026-05-08 18:10 56.18585 43.96175 2414 ft 307 kts 184°
2026-05-08 18:11 56.16461 43.96030 2515 ft 310 kts 184°
2026-05-08 18:11 56.14311 43.95895 2529 ft 310 kts 183°
2026-05-08 18:11 56.12150 43.95844 2529 ft 311 kts 182°
2026-05-08 18:11 56.10050 43.95389 2519 ft 294 kts 200°
2026-05-08 18:12 56.08305 43.93856 2526 ft 267 kts 221°
2026-05-08 18:12 56.07049 43.91613 2524 ft 245 kts 240°
2026-05-08 18:12 56.06291 43.89053 2518 ft 223 kts 257°
2026-05-08 18:12 56.05978 43.86482 2510 ft 206 kts 272°
2026-05-08 18:13 56.06027 43.84011 2524 ft 188 kts 286°
2026-05-08 18:13 56.06347 43.81885 2531 ft 165 kts 299°
2026-05-08 18:13 56.06844 43.80133 2544 ft 150 kts 309°
2026-05-08 18:13 56.07447 43.78719 2523 ft 138 kts 317°
2026-05-08 18:14 56.08139 43.77568 2527 ft 134 kts 326°
2026-05-08 18:14 56.08904 43.76659 2528 ft 131 kts 334°
2026-05-08 18:14 56.09718 43.75988 2550 ft 127 kts 341°
2026-05-08 18:14 56.10555 43.75566 2536 ft 123 kts 349°
2026-05-08 18:15 56.11392 43.75374 2490 ft 121 kts 353°
2026-05-08 18:15 56.12222 43.75250 2171 ft 119 kts 354°
2026-05-08 18:15 56.13052 43.75222 1834 ft 119 kts 358°
2026-05-08 18:15 56.13883 43.75285 1513 ft 120 kts
2026-05-08 18:16 56.14717 43.75445 1332 ft 123 kts
2026-05-08 18:16 56.15564 43.75798 1176 ft 127 kts
2026-05-08 18:16 56.16431 43.76198 1089 ft 129 kts 10°
2026-05-08 18:16 56.17296 43.76579 953 ft 129 kts
2026-05-08 18:17 56.18170 43.76877 899 ft 130 kts
2026-05-08 18:17 56.19066 43.77131 792 ft 127 kts
2026-05-08 18:17 56.19929 43.77452 599 ft 127 kts 10°
2026-05-08 18:17 56.20786 43.77793 463 ft 127 kts
2026-05-08 18:18 56.21655 43.78088 275 ft 127 kts
2026-05-08 18:18 56.22472 43.78317 302 ft 129 kts 11°
2026-05-08 18:18 56.23428 43.78696 704 ft 152 kts 11°
2026-05-08 18:18 56.24573 43.79165 1028 ft 188 kts 10°
2026-05-08 18:19 56.25975 43.79710 1232 ft 226 kts
2026-05-08 18:19 56.27678 43.80406 1317 ft 270 kts 11°
2026-05-08 18:19 56.29523 43.81201 2225 ft 284 kts 12°
2026-05-08 18:19 56.31439 43.82741 2453 ft 324 kts 32°
2026-05-08 18:20 56.32990 43.85676 2471 ft 319 kts 54°
2026-05-08 18:20 56.33702 43.89283 2496 ft 305 kts 79°
2026-05-08 18:20 56.33502 43.93016 2498 ft 311 kts 105°
2026-05-08 18:20 56.32415 43.96402 2480 ft 309 kts 130°
2026-05-08 18:21 56.30716 43.98552 2493 ft 293 kts 158°
2026-05-08 18:21 56.28787 43.99163 2488 ft 275 kts 180°
2026-05-08 18:21 56.26887 43.99108 2498 ft 272 kts 183°
2026-05-08 18:21 56.25010 43.98919 2498 ft 265 kts 189°
2026-05-08 18:22 56.23219 43.98369 2528 ft 256 kts 193°
2026-05-08 18:22 56.21500 43.97775 2533 ft 251 kts 194°
2026-05-08 18:22 56.19801 43.97185 2533 ft 248 kts 193°
2026-05-08 18:22 56.18113 43.96573 2534 ft 247 kts 194°
2026-05-08 18:23 56.16446 43.95922 2533 ft 242 kts 198°
2026-05-08 18:23 56.14816 43.95157 2533 ft 242 kts 198°
2026-05-08 18:23 56.13208 43.94309 2535 ft 241 kts 202°
2026-05-08 18:23 56.11623 43.93320 2534 ft 242 kts 204°
2026-05-08 18:24 56.10038 43.92305 2529 ft 242 kts 203°
2026-05-08 18:24 56.08514 43.91111 2527 ft 237 kts 212°
2026-05-08 18:24 56.07198 43.89462 2525 ft 226 kts 237°
2026-05-08 18:24 56.06587 43.87013 2529 ft 211 kts 270°
2026-05-08 18:25 56.06527 43.84415 2529 ft 206 kts 277°
2026-05-08 18:25 56.06655 43.81899 2527 ft 199 kts 293°
2026-05-08 18:25 56.07201 43.79666 2528 ft 192 kts 310°
2026-05-08 18:25 56.08056 43.77911 2529 ft 183 kts 331°
2026-05-08 18:26 56.09236 43.77189 2539 ft 181 kts 347°
2026-05-08 18:26 56.10444 43.76543 2535 ft 181 kts 343°
2026-05-08 18:26 56.11620 43.75952 2523 ft 169 kts 353°
2026-05-08 18:26 56.12756 43.75933 2377 ft 159 kts
2026-05-08 18:27 56.13824 43.76019 2190 ft 150 kts
2026-05-08 18:27 56.14527 43.76036 1875 ft 150 kts 358°
2026-05-08 18:27 56.15904 43.76115 1324 ft 146 kts
2026-05-08 18:27 56.16890 43.76359 1060 ft 137 kts
2026-05-08 18:28 56.17825 43.76689 1003 ft 139 kts 12°
2026-05-08 18:28 56.18761 43.77103 833 ft 138 kts 12°
2026-05-08 18:28 56.19668 43.77410 664 ft 131 kts
2026-05-08 18:28 56.20536 43.77666 467 ft 124 kts
2026-05-08 18:29 56.21373 43.77994 324 ft 123 kts
2026-05-08 18:29 56.22144 43.78276 267 ft 86 kts 10°
2026-05-08 18:29 56.22525 43.78406 265 ft 45 kts 11°
2026-05-08 18:29 56.22814 43.78510 266 ft 39 kts 11°
2026-05-08 18:30 56.23065 43.78605 269 ft 35 kts 12°
2026-05-08 18:30 56.23298 43.78694 266 ft 34 kts 11°
2026-05-08 18:30 56.23522 43.78772 264 ft 32 kts 10°
2026-05-08 18:30 56.23738 43.78840 265 ft 30 kts
2026-05-08 18:31 56.23927 43.78914 267 ft 20 kts 13°
2026-05-08 18:31 56.24062 43.78973 268 ft 20 kts 15°
2026-05-08 18:31 56.24086 43.79157 266 ft 13 kts 110°
2026-05-08 18:31 56.24078 43.79188 266 ft 0 kts 116°
2026-05-08 18:32 56.24065 43.79222 266 ft 13 kts 130°
2026-05-08 18:32 56.23973 43.79263 266 ft 13 kts 179°
2026-05-08 18:32 56.23885 43.79261 266 ft 12 kts 181°
2026-05-08 18:33 56.23795 43.79253 266 ft 14 kts 183°
2026-05-08 18:33 56.23706 43.79243 266 ft 12 kts 184°
2026-05-08 18:33 56.23599 43.79230 266 ft 23 kts 183°
2026-05-08 18:33 56.23444 43.79198 266 ft 21 kts 210°
2026-05-08 18:34 56.23312 43.79160 266 ft 18 kts 192°
2026-05-08 18:34 56.23193 43.79115 266 ft 17 kts 191°
2026-05-08 18:34 56.23087 43.79077 266 ft 15 kts 191°
2026-05-08 18:34 56.22978 43.79036 266 ft 22 kts 192°
2026-05-08 18:35 56.22768 43.78953 266 ft 33 kts 192°
2026-05-08 18:35 56.22540 43.78873 266 ft 28 kts 191°
2026-05-08 18:35 56.22354 43.78791 266 ft 28 kts 196°
2026-05-08 18:35 56.22202 43.78730 266 ft 19 kts 190°
2026-05-08 18:36 56.22115 43.78719 266 ft 10 kts 156°
2026-05-08 18:36 56.22063 43.78778 266 ft 8 kts 111°
2026-05-08 18:36 56.22084 43.78853 266 ft 11 kts 28°
2026-05-08 18:36 56.22163 43.78896 266 ft 8 kts 25°
2026-05-08 18:37 56.22175 43.78933 266 ft 1 kts 77°
2026-05-08 18:37 56.22174 43.78941 266 ft 2 kts 92°
2026-05-08 18:37 56.22170 43.78982 266 ft 0 kts 100°
2026-05-08 18:37 56.22170 43.78988 266 ft 0 kts 100°